This is the latest recevied weather packets stored in our database for station/object N8BAP. If no packets are shown the sender has not sent any weather packets the latest 10 day(s).
| Time | Temp. | Humidity | Pressure | Rain* | Wind** | Luminosity | Snow |
|---|---|---|---|---|---|---|---|
| 1777905235 | 15.56° C | 63% | 1014.8 hPa | 0 mm | - | 615 W/m² | - |
| 1777904933 | 15.56° C | 64% | 1015 hPa | 0 mm | - | 656 W/m² | - |
| 1777904630 | 15.56° C | 65% | 1014.8 hPa | 0 mm | - | 652 W/m² | - |
| 1777904327 | 15° C | 64% | 1014.7 hPa | 0 mm | - | 630 W/m² | - |
| 1777904024 | 15° C | 66% | 1015.2 hPa | 0 mm | - | 539 W/m² | - |
| 1777903721 | 15° C | 65% | 1014.9 hPa | 0 mm | - | 426 W/m² | - |
| 1777903417 | 14.44° C | 66% | 1015.2 hPa | 0 mm | - | 498 W/m² | - |
| 1777903114 | 13.89° C | 67% | 1015.5 hPa | 0 mm | - | 381 W/m² | - |
| 1777902810 | 13.89° C | 67% | 1015.2 hPa | 0 mm | - | 233 W/m² | - |
| 1777902508 | 13.89° C | 67% | 1015.3 hPa | 0 mm | - | 344 W/m² | - |
| 1777902204 | 14.44° C | 66% | 1015.3 hPa | 0 mm | - | 217 W/m² | - |
| 1777901902 | 13.89° C | 66% | 1015.3 hPa | 0 mm | - | 503 W/m² | - |
| 1777901600 | 13.89° C | 67% | 1015.5 hPa | 0 mm | - | 360 W/m² | - |
| 1777901297 | 13.33° C | 67% | 1015.6 hPa | 0 mm | - | 420 W/m² | - |
| 1777900995 | 13.33° C | 67% | 1015.3 hPa | 0 mm | - | 170 W/m² | - |
| 1777900692 | 13.33° C | 67% | 1015.3 hPa | 0 mm | - | 255 W/m² | - |
| 1777900388 | 13.33° C | 67% | 1015.2 hPa | 0 mm | - | 199 W/m² | - |
| 1777900080 | 12.78° C | 67% | 1015.5 hPa | 0 mm | - | 190 W/m² | - |
| 1777899776 | 12.78° C | 67% | 1015.2 hPa | 0 mm | - | 183 W/m² | - |
| 1777899473 | 12.78° C | 67% | 1015.8 hPa | 0 mm | - | 193 W/m² | - |
| 1777899171 | 12.78° C | 67% | 1015.9 hPa | 0 mm | - | 176 W/m² | - |
| 1777898869 | 12.78° C | 67% | 1015.7 hPa | 0 mm | - | 145 W/m² | - |
| 1777898566 | 12.22° C | 67% | 1015.3 hPa | 0 mm | - | 150 W/m² | - |
| 1777898263 | 12.22° C | 66% | 1015.8 hPa | 0 mm | - | 140 W/m² | - |
| 1777897960 | 12.22° C | 66% | 1015.7 hPa | 0 mm | - | 89 W/m² | - |
* Rain latest hour (hover to see other rain measurements)
** Current wind speed in m/s (hover to see current wind gust speed)